Weather in Spasskoye-Lutovinovo

Russia / Oryol Oblast     53°22′13″N   36°37′24″E
temp.,
°C
wind,
m/s
gust,
m/s
humid.,
%
clouds,
%
prec.,
mm/h
press.,
hPa
HPBL,
m
23 april, fri
fri2300:00+8s412857 0.1 1017235
03:00+7s5128554 0.1 1016262
06:00+7s5128584 0.0 1017259
09:00+12s712655 0.0 1016774
12:00+15s9114799 0.1 10142371
15:00+14sw101364100 0.6 10131959
18:00+9nw3377100 0.6 1013580
21:00+6n2392100 9.1 1013195
24 april, sat
sat2400:00+6wnw3594100 3.1 1011508
03:00+4wnw4989100 4.3 1011632
06:00+4wnw2586100 1.1 1010408
09:00+6w566843 1.6 10101091
12:00+8wsw6757100 0.9 10091710
15:00+7wsw895299 2.0 10091792
18:00+5w796298 0.7 10101226
21:00+2w81384100 1.2 1012771
25 april, sun
sun2500:00+2w7138497 0.4 1012791
03:000w714855 0.4 1014486
06:000wsw512875 0.0 1015386
09:00+4wsw711655 0.0 10151222
12:00+7wsw7104666 0.0 10141957
15:00+9sw71142100 0.1 10132467
18:00+6sw7128099 0.3 10121234
21:00+3w588389 0.4 1014654
26 april, mon
mon2600:00+1sw49905 0.0 1015216
03:00−1wsw37895 0.0 1015161
06:000sw38865 0.0 1015224
09:00+4wsw46655 0.0 1014873
12:00+7wsw5746100 0.1 10132280
15:00+8w564193 0.1 10122161
18:00+7wnw34488 0.0 10111857
21:00+2w357299 0.1 101296
27 april, tue
tue2700:00+1sw3580100 0.0 101288
03:00+1wnw2598100 1.4 1012216
06:00+1ssw479694 0.1 1011355
09:00+4wsw576947 0.2 1012931
12:00+7w6751100 0.9 10112087
15:00+8w7849100 2.8 10101922
18:00+6w676158 1.2 10111195
21:00+2w36810 1.3 1013116